YAMAL 402

Last updated on Sept. 29, 2020, 5:50 a.m. UTC

1 39022U 12070A   20272.78978744  .00000065  00000-0  00000+0 0  9993
2 39022   0.0171 121.6059 0002871  71.2342 154.4022  1.00272505 28660
UTC
Height (km)
Latitude
Longitude
Inclination
Orbital Period
UTC large
Height (km)
Speed (km/s)
/
Latitude / Longitude
Inclination (degrees)
Orbital Period (minutes)
Azimuth
Elevation
Range (km)
Doppler Factor
iOS Compass Heading
iOS Angle

Next 30 passes for location: Hong Kong

Rise time Rise Azimuth (degrees) Set time Set Azimuth (degrees) Duration Max altitude (degrees)

No matching passes for this satellites